[[{"header":{"parameterUnit":"m.s-1","parameterCategory":1,"la1":30.2991,"la2":30.254,"lo1":-89.0895,"lo2":-89.0444,"dy":0.0017,"dx":0.0017,"nx":28,"ny":28,"refTime":"2025-09-04T09:00:00:Z","depth":0,"parameterNumber":2,"parameterNumberName":"U-component_of_WINDS"},"data":[0,0,0,0,0,0,0,0,0,0,0,0,0,0,0,0,0,0,0,0,0,0,0,0,0,0,0,0,0,0,0,0,0,0,0,0,0,0,0,0,0,0,0,0,0,0,0,0,0,0,0,0,0,0,0,0,0,0,-0.8802,-0.8802,0,-0.8845,-0.8845,-0.8846,-0.8844,-0.8844,-0.8843,-0.8843,-0.8889,-0.889,-0.8892,0,0,0,0,0,0,0,0,0,0,0,0,0,-0.872,-0.8721,-0.8801,-0.8802,-0.8803,-0.8845,-0.8845,-0.8846,-0.8845,-0.8844,-0.8843,-0.8842,-0.8888,-0.889,-0.8892,0,0,0,0,0,0,0,0,0,0,0,0,0,-0.8758,-0.8722,-0.8801,-0.8807,-0.8808,-0.8845,-0.8845,-0.8846,-0.8845,-0.8844,-0.8843,-0.8842,-0.8887,-0.889,-0.8893,-0.8927,0,0,-0.8901,-0.8902,0,0,0,0,0,0,0,0,-0.8756,-0.8761,-0.8806,-0.8807,-0.8808,-0.8838,-0.8833,-0.8873,-0.8845,-0.8831,-0.8843,-0.8842,-0.8873,-0.8877,-0.8887,-0.8929,-0.8931,-0.8901,-0.8903,-0.8904,-0.8905,0,0,0,0,0,0,0,-0.8754,-0.876,-0.8819,-0.8806,-0.8808,-0.8808,-0.8812,-0.8841,-0.8856,-0.8832,-0.8832,-0.8837,-0.8873,-0.8884,-0.8888,-0.8932,-0.8901,-0.8903,-0.8905,-0.8906,-0.9006,-0.9007,0,0,0,0,0,0,-0.8749,-0.8757,-0.8817,-0.882,-0.8779,-0.881,-0.8815,-0.8829,-0.8856,-0.8859,-0.8838,-0.8837,-0.888,-0.8885,-0.8889,-0.8932,-0.8904,-0.8906,-0.8908,-0.9005,-0.9006,-0.9007,0,0,0,0,0,0,-0.8748,-0.8755,-0.8816,-0.8789,-0.8796,-0.8812,-0.8829,-0.8831,-0.8842,-0.886,-0.8863,-0.8846,-0.8879,-0.8886,-0.8918,-0.8933,-0.8908,-0.891,-0.9003,-0.9005,-0.9007,-0.9017,0,0,0,0,0,0,-0.8745,-0.8754,-0.8767,-0.8789,-0.8798,-0.8843,-0.8829,-0.8832,-0.8846,-0.8845,-0.8869,-0.8872,-0.8879,-0.8914,-0.892,-0.8937,-0.8912,-0.9002,-0.9004,-0.9006,-0.9015,-0.9018,-0.9021,0,0,0,0,0,-0.8742,-0.8768,-0.8768,-0.8775,-0.8814,-0.8843,-0.8849,-0.8856,-0.8847,-0.8861,-0.8873,-0.8871,-0.8931,-0.8917,-0.8925,-0.8942,-0.9001,-0.9004,-0.9006,-0.9014,-0.9018,-0.9021,0,0,0,0,0,0,-0.8748,-0.8771,-0.8771,-0.8804,-0.8822,-0.8843,-0.886,-0.886,-0.8881,-0.8879,-0.8888,-0.8894,-0.8926,-0.8937,-0.8922,-0.8977,-0.8965,-0.8969,-0.8968,-0.8972,-0.8975,-0.8972,-0.8914,0,0,0,0,0,-0.8753,-0.8775,-0.8794,-0.8822,-0.8831,-0.8844,-0.8857,-0.8861,-0.888,-0.8888,-0.8902,-0.8921,-0.8944,-0.8959,-0.8981,-0.9017,-0.9022,-0.9032,-0.9036,-0.9038,-0.9041,-0.9062,-0.9067,-0.9015,-0.9015,-0.9015,0,0,-0.8764,-0.8779,-0.8793,-0.8823,-0.8837,-0.886,-0.885,-0.8874,-0.8891,-0.8891,-0.8922,-0.8934,-0.8956,-0.899,-0.9006,-0.9,-0.9057,-0.9041,-0.9043,-0.9045,-0.9065,-0.9069,-0.9074,-0.9016,-0.9016,-0.9016,0,0,-0.8796,-0.8809,-0.8834,-0.8848,-0.887,-0.8878,-0.8884,-0.8906,-0.8913,-0.8944,-0.8945,-0.8966,-0.9005,-0.9021,-0.9034,-0.9071,-0.9071,-0.9079,-0.9095,-0.9115,-0.9119,-0.9122,-0.9136,-0.9141,-0.9082,-0.9082,-0.9082,0,-0.8807,-0.884,-0.8847,-0.8871,-0.8885,-0.8886,-0.8911,-0.8925,-0.8953,-0.8963,-0.8956,-0.9006,-0.902,-0.9058,-0.9068,-0.9078,-0.9086,-0.9076,-0.9117,-0.9121,-0.9125,-0.9138,-0.9143,-0.9083,-0.9082,-0.9082,-0.9082,0,-0.8852,-0.8876,-0.8893,-0.892,-0.8935,-0.896,-0.8972,-0.8987,-0.899,-0.9,-0.9032,-0.905,-0.9076,-0.9085,-0.9088,-0.9124,-0.912,-0.9115,-0.9103,-0.913,-0.9143,-0.9148,-0.9084,-0.9083,-0.9083,-0.9083,0,0,-0.8888,-0.8918,-0.8925,-0.8937,-0.896,-0.8979,-0.9004,-0.9029,-0.9042,-0.9062,-0.9083,-0.9117,-0.9113,-0.9128,-0.9133,-0.915,-0.918,-0.9144,-0.9144,-0.915,-0.922,-0.9223,-0.9229,-0.9179,-0.918,-0.9181,-0.9218,0,-0.8922,-0.8966,-0.8973,-0.9012,-0.9034,-0.9036,-0.9058,-0.9075,-0.9085,-0.9106,-0.9117,-0.9141,-0.9133,-0.9142,-0.916,-0.9172,-0.9194,-0.917,-0.92,-0.9201,-0.9195,-0.9236,-0.9239,-0.9273,-0.9223,-0.9224,-0.9225,0,-0.8967,-0.8987,-0.9028,-0.9049,-0.9059,-0.9079,-0.9102,-0.9122,-0.9142,-0.9148,-0.9165,-0.9168,-0.9195,-0.9182,-0.922,-0.9203,-0.9217,-0.9225,-0.9226,-0.923,-0.9215,-0.924,-0.9285,-0.929,-0.9233,-0.9232,-0.9231,0,-0.8989,-0.9027,-0.9056,-0.9066,-0.9092,-0.9106,-0.9117,-0.9136,-0.9151,-0.9172,-0.9182,-0.9206,-0.9219,-0.9238,-0.9248,-0.9238,-0.9285,-0.9273,-0.9292,-0.9292,-0.9302,-0.9301,-0.9349,-0.931,-0.931,-0.931,-0.931,0,-0.9026,-0.9051,-0.9066,-0.9084,-0.9113,-0.9121,-0.915,-0.9161,-0.9178,-0.9199,-0.9202,-0.9222,-0.9234,-0.9255,-0.9264,-0.9294,-0.93,-0.9306,-0.9308,-0.9306,-0.9305,-0.9314,-0.9312,-0.9311,-0.9311,-0.9311,-0.931,0,-0.9055,-0.9066,-0.9099,-0.912,-0.9126,-0.9146,-0.9165,-0.9183,-0.9193,-0.922,-0.9226,-0.9242,-0.9268,-0.928,-0.9312,-0.9318,-0.9352,-0.9352,-0.9345,-0.9346,-0.9364,-0.9362,-0.9419,-0.9428,-0.9383,-0.9384,-0.9384,0,-0.9078,-0.9097,-0.9121,-0.9135,-0.9147,-0.9169,-0.9184,-0.9194,-0.9209,-0.9234,-0.9249,-0.9275,-0.9296,-0.9337,-0.9352,-0.9377,-0.9378,-0.9396,-0.9381,-0.9379,-0.9378,-0.9377,-0.9379,-0.9399,-0.9399,-0.94,-0.94,0,-0.9117,-0.9122,-0.9143,-0.9166,-0.9184,-0.9203,-0.9221,-0.9233,-0.9245,-0.9263,-0.9289,-0.9305,-0.9338,-0.9364,-0.9389,-0.9402,-0.9403,-0.9404,-0.941,-0.9408,-0.9403,-0.9406,-0.9352,-0.9403,-0.9403,-0.9403,-0.9402,-0.9402,-0.9144,-0.9161,-0.9181,-0.9204,-0.9219,-0.9237,-0.9255,-0.9267,-0.9289,-0.9316,-0.932,-0.9348,-0.9369,-0.9403,-0.9417,-0.944,-0.9435,-0.9443,-0.9445,-0.9447,-0.9448,-0.9399,-0.9444,-0.9444,-0.9444,-0.9444,-0.9444,0,-0.9184,-0.9196,-0.9218,-0.9243,-0.9262,-0.9261,-0.9282,-0.9298,-0.9322,-0.9341,-0.9362,-0.9392,-0.9417,-0.9434,-0.946,-0.9475,-0.9476,-0.9481,-0.948,-0.9483,-0.9451,-0.9443,-0.948,-0.948,-0.948,-0.948,-0.948,-0.948,-0.9206,-0.9236,-0.9243,-0.928,-0.9293,-0.9319,-0.9331,-0.9348,-0.9363,-0.9396,-0.9417,-0.9428,-0.9446,-0.9473,-0.9497,-0.9501,-0.9511,-0.9516,-0.952,-0.9489,-0.9486,-0.9482,-0.9475,-0.9518,-0.9518,-0.9551,-0.9551,-0.9552]},{"header":{"parameterUnit":"m.s-1","parameterCategory":1,"la1":30.2991,"la2":30.254,"lo1":-89.0895,"lo2":-89.0444,"dy":0.0017,"dx":0.0017,"nx":28,"ny":28,"refTime":"2025-09-04T09:00:00:Z","depth":0,"parameterNumber":3,"parameterNumberName":"V-component_of_WINDS"},"data":[0,0,0,0,0,0,0,0,0,0,0,0,0,0,0,0,0,0,0,0,0,0,0,0,0,0,0,0,0,0,0,0,0,0,0,0,0,0,0,0,0,0,0,0,0,0,0,0,0,0,0,0,0,0,0,0,0,0,-0.1809,-0.1809,0,-0.1856,-0.1856,-0.1857,-0.1855,-0.1854,-0.1854,-0.1853,-0.19,-0.1902,-0.1903,0,0,0,0,0,0,0,0,0,0,0,0,0,-0.1716,-0.1718,-0.1809,-0.1809,-0.181,-0.1856,-0.1856,-0.1857,-0.1855,-0.1854,-0.1854,-0.1853,-0.1899,-0.1901,-0.1904,0,0,0,0,0,0,0,0,0,0,0,0,0,-0.1759,-0.1718,-0.1809,-0.1815,-0.1816,-0.1856,-0.1856,-0.1857,-0.1855,-0.1854,-0.1853,-0.1852,-0.1898,-0.1901,-0.1904,-0.1941,0,0,-0.1912,-0.1914,0,0,0,0,0,0,0,0,-0.1757,-0.1762,-0.1813,-0.1814,-0.1815,-0.1849,-0.1841,-0.1885,-0.1856,-0.184,-0.1853,-0.1852,-0.1883,-0.1887,-0.1898,-0.1943,-0.1945,-0.1913,-0.1914,-0.1916,-0.1916,0,0,0,0,0,0,0,-0.1754,-0.176,-0.1827,-0.1814,-0.1815,-0.1814,-0.1819,-0.1849,-0.1867,-0.1841,-0.1841,-0.1847,-0.1884,-0.1896,-0.1899,-0.1945,-0.1913,-0.1915,-0.1917,-0.1918,-0.2022,-0.2024,0,0,0,0,0,0,-0.175,-0.1758,-0.1826,-0.1829,-0.1783,-0.1817,-0.1823,-0.1839,-0.1866,-0.187,-0.1848,-0.1847,-0.1891,-0.1896,-0.1901,-0.1946,-0.1916,-0.1918,-0.192,-0.2021,-0.2023,-0.2024,0,0,0,0,0,0,-0.1748,-0.1756,-0.1824,-0.1793,-0.1802,-0.182,-0.1838,-0.184,-0.1852,-0.1871,-0.1874,-0.1857,-0.1891,-0.1897,-0.1931,-0.1948,-0.1919,-0.1922,-0.202,-0.2022,-0.2023,-0.2037,0,0,0,0,0,0,-0.1745,-0.1755,-0.177,-0.1794,-0.1804,-0.1854,-0.1839,-0.1842,-0.1857,-0.1856,-0.188,-0.1883,-0.1891,-0.1927,-0.1934,-0.1951,-0.1924,-0.2019,-0.2021,-0.2023,-0.2035,-0.2039,-0.2042,0,0,0,0,0,-0.1742,-0.1771,-0.177,-0.1779,-0.1822,-0.1855,-0.186,-0.1868,-0.1858,-0.1873,-0.1885,-0.1883,-0.1945,-0.193,-0.1938,-0.1957,-0.2018,-0.202,-0.2023,-0.2033,-0.2038,-0.2042,0,0,0,0,0,0,-0.1748,-0.1774,-0.1774,-0.1812,-0.1831,-0.1854,-0.1873,-0.1873,-0.1895,-0.1893,-0.1901,-0.1907,-0.1941,-0.1952,-0.1935,-0.1994,-0.198,-0.1984,-0.1985,-0.199,-0.1993,-0.199,-0.1926,0,0,0,0,0,-0.1754,-0.1779,-0.18,-0.1832,-0.1841,-0.1855,-0.187,-0.1874,-0.1894,-0.1902,-0.1917,-0.1936,-0.196,-0.1975,-0.1998,-0.2036,-0.2041,-0.2053,-0.2056,-0.2059,-0.2063,-0.2084,-0.2089,-0.2032,-0.2032,-0.2032,0,0,-0.1766,-0.1784,-0.1799,-0.1833,-0.1849,-0.1874,-0.1862,-0.1889,-0.1908,-0.1906,-0.1939,-0.195,-0.1972,-0.2008,-0.2025,-0.2019,-0.2079,-0.2062,-0.2064,-0.2067,-0.2087,-0.2092,-0.2097,-0.2034,-0.2034,-0.2033,0,0,-0.1802,-0.1817,-0.1846,-0.1861,-0.1885,-0.1894,-0.1901,-0.1924,-0.1932,-0.1965,-0.1965,-0.1986,-0.2027,-0.2043,-0.2056,-0.2097,-0.2095,-0.2104,-0.2123,-0.2143,-0.2148,-0.2152,-0.2167,-0.2172,-0.2107,-0.2107,-0.2107,0,-0.1814,-0.1853,-0.186,-0.1888,-0.1903,-0.1903,-0.1931,-0.1946,-0.1975,-0.1986,-0.1978,-0.2029,-0.2044,-0.2084,-0.2094,-0.2104,-0.2112,-0.2102,-0.2146,-0.2151,-0.2154,-0.2169,-0.2175,-0.2108,-0.2108,-0.2108,-0.2108,0,-0.1867,-0.1893,-0.1913,-0.1942,-0.196,-0.1987,-0.1999,-0.2015,-0.2018,-0.2028,-0.2062,-0.2079,-0.2105,-0.2115,-0.2118,-0.2155,-0.2151,-0.2145,-0.2131,-0.2161,-0.2175,-0.218,-0.211,-0.2109,-0.2109,-0.2109,0,0,-0.1909,-0.1942,-0.1949,-0.1963,-0.1988,-0.2008,-0.2036,-0.2062,-0.2076,-0.2096,-0.212,-0.2154,-0.2148,-0.2163,-0.2167,-0.2185,-0.2217,-0.2177,-0.2178,-0.2185,-0.226,-0.2266,-0.2272,-0.2216,-0.2217,-0.2218,-0.2259,0,-0.1948,-0.1998,-0.2005,-0.2049,-0.2073,-0.2073,-0.2097,-0.2115,-0.2124,-0.2146,-0.2156,-0.2181,-0.2171,-0.218,-0.2198,-0.221,-0.2233,-0.2207,-0.2238,-0.2239,-0.2234,-0.2279,-0.2285,-0.2323,-0.2264,-0.2265,-0.2266,0,-0.2,-0.2023,-0.2069,-0.2091,-0.2102,-0.2123,-0.2148,-0.2169,-0.2189,-0.2194,-0.2211,-0.2213,-0.2241,-0.2225,-0.2264,-0.2246,-0.2259,-0.2266,-0.2268,-0.2272,-0.2255,-0.2285,-0.2335,-0.2341,-0.2274,-0.2274,-0.2273,0,-0.2027,-0.2069,-0.2102,-0.2113,-0.214,-0.2155,-0.2167,-0.2186,-0.2201,-0.2222,-0.2232,-0.2256,-0.227,-0.2288,-0.2296,-0.2284,-0.2334,-0.2319,-0.234,-0.234,-0.2351,-0.2351,-0.2405,-0.2358,-0.2358,-0.2358,-0.2358,0,-0.2071,-0.2099,-0.2114,-0.2135,-0.2166,-0.2174,-0.2205,-0.2216,-0.2233,-0.2255,-0.2256,-0.2277,-0.2286,-0.2308,-0.2314,-0.2345,-0.2351,-0.2356,-0.2358,-0.2357,-0.2356,-0.2366,-0.2364,-0.2359,-0.2359,-0.2359,-0.2358,0,-0.2107,-0.2118,-0.2154,-0.2177,-0.2183,-0.2205,-0.2224,-0.2244,-0.2253,-0.2281,-0.2288,-0.2302,-0.2328,-0.2338,-0.2369,-0.2373,-0.2409,-0.2408,-0.2403,-0.2404,-0.2424,-0.2422,-0.2487,-0.2496,-0.2442,-0.2443,-0.2443,0,-0.2135,-0.2157,-0.2182,-0.2197,-0.2209,-0.2234,-0.2249,-0.2257,-0.2274,-0.2298,-0.2315,-0.2341,-0.2362,-0.2403,-0.2416,-0.2439,-0.2439,-0.246,-0.2443,-0.2441,-0.2441,-0.244,-0.2442,-0.2464,-0.2465,-0.2465,-0.2465,0,-0.2183,-0.2187,-0.221,-0.2236,-0.2255,-0.2274,-0.2294,-0.2306,-0.2317,-0.2335,-0.2362,-0.2378,-0.241,-0.2436,-0.246,-0.2471,-0.247,-0.2471,-0.2477,-0.2477,-0.2473,-0.2476,-0.2413,-0.2469,-0.2469,-0.2469,-0.2469,-0.2468,-0.2216,-0.2236,-0.2257,-0.2282,-0.2298,-0.2316,-0.2335,-0.2347,-0.237,-0.2397,-0.24,-0.2429,-0.2447,-0.248,-0.2493,-0.2515,-0.2509,-0.2518,-0.252,-0.2523,-0.2524,-0.2469,-0.2519,-0.2519,-0.2519,-0.2519,-0.2519,0,-0.2265,-0.2279,-0.2302,-0.2329,-0.2349,-0.2347,-0.2368,-0.2385,-0.241,-0.2428,-0.2449,-0.248,-0.2504,-0.2519,-0.2543,-0.2558,-0.2559,-0.2565,-0.2564,-0.2567,-0.2528,-0.252,-0.2564,-0.2564,-0.2564,-0.2564,-0.2564,-0.2564,-0.2293,-0.2327,-0.2333,-0.2374,-0.2387,-0.2416,-0.2428,-0.2444,-0.2459,-0.2493,-0.2514,-0.2523,-0.254,-0.2566,-0.2588,-0.2591,-0.2601,-0.2608,-0.2611,-0.2574,-0.257,-0.2565,-0.2558,-0.2609,-0.2609,-0.2648,-0.2648,-0.2649]}]]